Flag for Poland Weather past 2 weeks in Legnica, Poland

Now
41 °F

Passing clouds.


Feels Like: 37 °F
Forecast: 34 / 45 °F
Wind: 5 mph from Southwest

Location: Wroclaw Ii

Current Time: Mar 2, 2015 at 1:02:54 AM

Latest Report: Mar 2, 2015 at 12:00 AM


Visibility: 25 mi

Pressure: 29.69 "Hg

Humidity: 82%

Dew point: 36 °F

Location of LegnicaLocation

Historic Weather in Legnica — Graph

°F

Legnica temperature yesterday

Maximum temperature yesterday: 48 °F (at 12:00 PM)
Minimum temperature yesterday: 28 °F (at 7:00 AM)
Average temperature yesterday: 39 °F

Past Weeks' High & Low Weather Summary

 TemperatureHumidityPressure
High51 °F (Feb 15, 3:00 PM)97% (Feb 27, 7:00 AM)30.74 "Hg (Feb 27, 7:00 AM)
Low22 °F (Feb 19, 5:00 AM)43% (Feb 21, 1:00 PM)29.50 "Hg (Feb 23, 4:00 PM)
Average38 °F77%30.08 "Hg
* Reported Midnight between Feb 14 and Feb 15 — Midnight between Mar 1 and Mar 2, Legnica, Weather by CustomWeather, © 2015

Note: Actual official high and low records may vary slightly from our data, if they occured in-between our weather recording intervals... More about our weather records

Advertising

Legnica weather history for previous 24 hours

 ConditionsComfort  
Time TempWeatherWind HumidityBarometerVisibility
12:00 AM
Mon, Mar 2
N/APassing clouds.33 mphN/AN/A3 mi
11:00 PM
Sun, Mar 1
43 °FPassing clouds.5 mph78%29.69 "Hg25 mi
9:00 PM43 °FOvercast.7 mph78%29.71 "Hg19 mi
8:00 PM42 °FOvercast.7 mph78%29.72 "Hg19 mi
7:00 PM43 °FOvercast.7 mph73%29.72 "Hg19 mi
6:00 PM43 °FOvercast.5 mph71%29.72 "Hg9 mi
5:00 PM43 °FOvercast.6 mph70%29.72 "Hg9 mi
4:00 PM42 °FLight rain. Overcast.7 mph74%29.74 "Hg7 mi
3:00 PM46 °FOvercast.7 mph54%29.74 "Hg12 mi
2:00 PM46 °FPassing clouds.24 mph55%29.75 "Hg2 mi
1:00 PM47 °FOvercast.7 mph54%29.77 "Hg12 mi
12:00 PM48 °FOvercast.8 mph56%29.80 "Hg12 mi
11:00 AM46 °FOvercast.9 mph62%29.83 "Hg7 mi
10:00 AMN/APassing clouds.22 mphN/AN/A6 mi
9:00 AM38 °FFog.6 mph80%29.90 "Hg5 mi
8:00 AM32 °FFog.5 mph93%29.92 "Hg5 mi
7:00 AM28 °FFog.3 mph96%29.95 "Hg3 mi
6:00 AM30 °FFog.2 mph95%29.97 "Hg5 mi
5:00 AM29 °FClear.3 mph92%29.98 "Hg7 mi
3:00 AM31 °FClear.2 mph90%30.01 "Hg9 mi
2:00 AM33 °FClear.3 mph87%30.04 "Hg19 mi
1:00 AM34 °FClear.5 mph87%30.06 "Hg19 mi
Weather by CustomWeather, © 2015

See weather overviewHow to use our weather pages